Vertical_Velocity
1 1 -0 -1 -1 -0 -0 1 -1 0 0 -1 -1 0 -1 -1 -1 -1 -0 -0 0 -1 -1 0 -0 0 -1 1 9 -1 -2 -2 0 -0 1 1 1 -0 3 2 -3 4 -1 -1 -1 0 -1
-0 -1 -1 -0 0 -1 -0 -0 0 0 -0 -0 -1 -1 -2 -1 -1 0 1 0 -1 0 -1 -1 -0 -1 -1 6 1 -1 -3 -2 -1 -2 2 1 2 -1 1 1 4 2 1 -4 0 -3 1
-1 -1 -0 0 0 -1 0 0 0 -0 -1 -0 1 -0 -1 -1 -1 -0 -0 1 0 1 -0 1 -0 -1 -1 5 -4 -2 -1 -2 -1 -0 -1 -1 -1 2 -1 -3 -0 -1 1 -3 1 1 1
0 0 1 -0 -0 -1 -0 0 -1 -1 -1 -1 1 2 1 2 -1 -2 -2 -1 -0 0 -0 0 -1 1 5 1 1 -1 -2 -3 -1 -2 -1 -2 -0 -2 0 -7 1 4 3 -3 4 -2 -3
0 1 0 -0 -1 0 0 0 -1 -0 -0 -0 -1 -1 -1 -1 -0 -1 -2 -2 -2 -0 1 -0 -2 -2 9 1 1 0 2 1 -2 0 -1 -2 -3 -1 -4 3 -4 -5 2 -2 -4 1 1
-0 -1 -1 -1 -0 0 -1 -2 -1 -1 -1 -0 -2 -3 -2 -2 -0 1 -2 1 -0 -2 -1 -1 -0 3 -0 5 -1 -0 -1 -1 1 0 -0 0 -0 2 -6 -4 4 -0 -2 -4 2 1 -4
-1 -1 -1 -0 -0 -0 0 -0 -0 -1 -0 -0 -0 -1 -1 -2 -2 -2 -5 -6 -2 2 -0 -0 0 -0 0 -2 -1 -0 -0 -2 1 -0 1 -0 2 2 5 3 3 3 3 2 2 -0 -9
-1 -1 -2 -3 -2 -1 -1 -2 -2 -1 -0 -2 -3 -0 -1 -1 -3 -1 1 -9 -1 2 -4 -3 -1 -2 -0 -1 2 2 -2 5 2 1 -1 6 2 3 1 -0 4 -0 2 1 4 -1 0
-2 -2 -0 -0 -1 -1 -0 -1 0 -1 -1 -1 0 -2 -0 -3 -1 -4 -5 -2 1 1 5 0 0 1 1 -1 0 1 -3 -3 2 -0 -0 2 5 -0 1 -2 -2 -0 3 -1 5 -1 0
-0 -0 -1 0 0 0 -0 -0 -0 -1 -2 -3 -3 -2 -3 -2 -7 -2 -3 -2 -1 -2 5 5 2 -1 -0 -0 3 -2 -1 -1 2 2 1 2 -1 1 -2 0 4 1 3 2 1 6 4
-0 -1 -1 -0 -0 -0 -1 -0 0 -0 0 -2 -1 -2 -3 -4 1 -2 2 1 -3 -2 1 5 2 -3 -2 2 -1 0 -1 1 1 1 6 5 -1 -1 -2 6 2 4 2 2 1 1 2
-0 -1 -1 0 -1 -1 -1 -0 -1 0 -1 1 -2 -1 -2 -2 -1 0 -0 -1 1 8 -1 1 -0 1 0 -1 -0 -2 1 -2 -4 1 0 2 -1 2 5 -1 1 0 1 1 1 3 3
0 0 0 -0 -1 -2 -2 -2 -2 -4 -2 -2 -2 -0 -1 -0 -1 -0 -1 -2 3 3 2 1 0 -1 1 -1 0 -2 -1 -3 3 1 -2 -4 1 1 1 -0 2 -7 1 -0 0 1 2
-0 -3 -0 -1 -0 2 1 -3 -2 -1 -2 -1 -3 -3 -3 2 2 1 -1 6 -0 2 1 1 0 -1 2 2 1 -0 -0 1 0 -1 1 2 -5 0 2 1 6 1 3 3 2 2 2
1 -0 1 2 -2 -0 1 -0 -2 -2 -3 1 -1 -3 -2 -3 -5 -3 1 1 2 1 2 1 -5 2 0 0 4 1 0 1 1 2 5 1 -2 1 -0 0 5 -0 -0 2 2 1 4
0 0 1 -1 0 2 1 -1 0 1 -2 -1 -3 -4 -1 2 1 -3 5 -0 1 -0 -0 1 2 2 1 -0 2 2 1 3 1 0 1 2 -0 0 1 2 1 7 4 9 3 2 -0
-0 -0 -3 -1 2 1 -1 5 -5 3 -0 2 -5 -5 -4 -1 -1 0 2 0 -0 -1 1 2 0 0 -0 1 1 -0 -0 4 0 1 0 1 4 -1 5 2 2 4 0 1 5 3 3
-1 -2 -1 0 1 -0 2 -1 4 -1 3 6 -3 4 -2 -2 3 -1 1 -1 -2 -1 -1 0 2 2 2 0 0 1 1 2 -1 -0 1 2 3 0 -0 2 0 1 1 2 4 2 0
-0 1 -0 -1 -1 -1 -2 -0 1 2 2 1 -0 -2 -2 -3 2 0 0 0 -0 1 -1 1 0 1 0 0 2 1 -0 0 -1 0 2 2 -1 -0 7 8 4 1 -1 0 1 1 -4
-0 1 3 1 -1 -2 -1 -2 -0 3 0 1 3 0 -0 -2 1 3 1 -1 0 -1 -1 -0 0 1 2 1 -0 -1 -1 1 -0 -0 -2 1 1 2 0 6 3 2 0 0 4 5 -3
0 -0 1 3 5 1 0 -1 0 3 -1 10 -1 -3 1 0 2 1 1 0 0 1 -0 0 1 1 -2 1 0 -0 -0 -0 2 -0 0 4 1 4 -3 -1 3 1 0 -2 5 -7 8
-2 -0 3 4 3 2 2 2 1 2 4 2 0 -2 -1 -1 0 -0 0 -3 1 -2 2 -1 5 -1 1 1 -1 1 1 0 0 3 1 0 -1 1 -3 -2 3 1 -1 0 0 -2 2
-2 -1 -0 2 2 2 5 1 0 1 1 2 -5 2 3 -2 1 3 -3 -3 -4 1 -5 2 -1 2 3 -7 0 -1 -1 -1 2 1 -0 2 1 1 -4 -0 0 3 -3 -2 -2 0 4
-3 -0 -1 -3 4 1 3 3 1 5 10 3 -3 2 -3 -2 1 -3 0 -0 0 -2 4 0 1 3 -1 1 -3 -1 1 0 2 -3 2 1 2 2 -2 1 4 7 0 1 -0 -0 0
1 -1 -1 -2 -1 5 1 1 3 2 4 -5 7 -2 -4 -1 -2 -1 2 -1 -0 -3 -1 3 1 2 -2 -2 0 -3 1 3 1 0 -0 3 2 0 2 0 -0 4 1 1 2 3 -1
1 1 1 -1 -2 0 2 1 0 1 -1 12 2 4 -1 -4 -8 3 2 -1 -2 -1 1 -1 -2 2 0 0 0 0 -2 -1 0 4 -0 1 2 4 2 3 0 7 2 -1 -0 3 0
2 -3 -2 0 -0 -2 10 -1 0 1 5 9 -3 1 4 -1 -8 -1 -3 -5 -2 2 -0 -0 1 -0 -0 0 2 0 -2 -2 -1 1 0 2 2 -1 -1 -0 3 2 0 -2 8 9 0
3 2 -2 -0 1 -3 2 1 1 3 -0 2 -10 4 7 1 -2 -2 3 -4 1 1 -2 1 -0 1 4 2 3 -2 2 -3 2 -2 -3 -5 -1 -1 2 3 -1 -0 3 5 4 0 -0
-1 4 1 3 -4 0 -4 4 2 4 1 13 3 3 11 1 2 0 -3 2 2 4 -4 2 -2 -1 -0 2 3 1 1 2 -1 -0 1 4 2 1 3 3 2 2 -1 -0 -1 1 0
Height
1581 1580 1579 1578 1577 1576 1574 1573 1572 1570 1568 1566 1564 1562 1559 1557 1554 1551 1548 1545 1542 1540 1537 1534 1534 1534 1534 1534 1533 1530 1529 1527 1526 1525 1525 1524 1522 1519 1514 1512 1510 1503 1503 1503 1501 1499 1497
1582 1581 1581 1580 1579 1577 1576 1574 1573 1571 1569 1567 1564 1562 1559 1557 1553 1550 1546 1543 1540 1537 1534 1532 1531 1532 1533 1534 1531 1530 1528 1527 1526 1525 1525 1524 1523 1521 1518 1513 1511 1506 1505 1500 1497 1497 1494
1584 1583 1582 1581 1580 1578 1577 1576 1574 1571 1569 1567 1564 1562 1559 1556 1552 1548 1545 1541 1537 1534 1532 1531 1530 1531 1532 1533 1529 1528 1528 1526 1525 1524 1524 1523 1522 1522 1519 1512 1510 1508 1502 1491 1493 1495 1493
1584 1584 1583 1582 1580 1579 1578 1576 1574 1571 1569 1567 1564 1561 1558 1555 1551 1547 1543 1539 1535 1532 1530 1529 1529 1530 1530 1529 1528 1528 1526 1524 1523 1522 1522 1522 1520 1520 1518 1513 1505 1502 1497 1492 1492 1496 1496
1585 1584 1583 1582 1581 1580 1578 1576 1574 1572 1569 1567 1564 1561 1558 1554 1550 1546 1542 1537 1534 1531 1530 1529 1530 1530 1530 1530 1529 1527 1526 1525 1522 1522 1521 1520 1521 1520 1514 1507 1495 1496 1499 1495 1493 1498 1492
1585 1584 1584 1583 1581 1580 1578 1576 1574 1572 1569 1567 1564 1562 1558 1554 1549 1545 1540 1536 1533 1531 1531 1530 1530 1533 1532 1533 1529 1527 1526 1524 1523 1522 1522 1522 1521 1515 1511 1510 1514 1511 1504 1497 1498 1501 1493
1585 1584 1583 1583 1581 1579 1578 1577 1575 1572 1570 1568 1565 1562 1558 1554 1549 1545 1540 1536 1538 1535 1533 1533 1533 1532 1531 1530 1528 1528 1526 1524 1524 1523 1520 1521 1517 1519 1518 1516 1516 1512 1507 1496 1500 1500 1497
1585 1584 1583 1582 1581 1580 1578 1576 1574 1572 1570 1568 1565 1562 1558 1554 1549 1546 1543 1541 1544 1544 1537 1532 1531 1531 1531 1530 1530 1529 1527 1527 1524 1520 1519 1519 1518 1520 1519 1517 1512 1507 1502 1500 1501 1500 1493
1585 1584 1583 1583 1582 1581 1579 1577 1575 1572 1570 1568 1565 1562 1558 1554 1549 1546 1543 1544 1542 1540 1539 1534 1532 1532 1532 1532 1530 1529 1528 1526 1523 1518 1520 1516 1521 1521 1517 1511 1513 1506 1510 1507 1506 1500 1496
1585 1584 1583 1582 1581 1580 1578 1577 1575 1572 1570 1567 1565 1562 1558 1555 1551 1547 1544 1542 1540 1539 1533 1535 1534 1533 1534 1532 1531 1529 1527 1528 1523 1521 1520 1520 1521 1520 1513 1512 1515 1506 1512 1509 1504 1495 1495
1583 1582 1582 1581 1580 1579 1578 1576 1574 1572 1569 1567 1564 1561 1558 1554 1552 1549 1548 1542 1540 1540 1541 1535 1534 1533 1531 1533 1532 1530 1528 1527 1525 1523 1523 1522 1522 1520 1515 1518 1515 1511 1514 1509 1504 1493 1490
1580 1580 1580 1579 1579 1578 1576 1575 1573 1571 1568 1566 1563 1561 1557 1555 1552 1550 1545 1542 1541 1539 1550 1536 1535 1534 1531 1531 1532 1531 1530 1529 1528 1525 1523 1523 1526 1524 1522 1519 1516 1510 1510 1505 1500 1496 1500
1577 1577 1577 1576 1576 1575 1575 1574 1572 1570 1568 1566 1563 1560 1557 1554 1552 1548 1545 1542 1542 1539 1538 1540 1539 1536 1535 1532 1530 1532 1532 1529 1529 1531 1524 1518 1522 1523 1525 1516 1513 1510 1505 1508 1507 1503 1503
1572 1572 1572 1572 1572 1572 1571 1571 1570 1569 1566 1564 1561 1559 1556 1554 1551 1549 1545 1543 1547 1541 1540 1542 1541 1536 1534 1534 1532 1530 1528 1527 1532 1530 1527 1530 1530 1524 1525 1526 1526 1519 1517 1516 1514 1504 1496
1567 1568 1568 1568 1569 1569 1568 1568 1568 1566 1565 1562 1559 1557 1554 1552 1551 1550 1549 1544 1542 1541 1545 1543 1536 1535 1531 1534 1535 1530 1529 1530 1534 1534 1535 1530 1524 1525 1526 1527 1526 1517 1520 1524 1517 1510 1507
1561 1563 1564 1564 1565 1565 1565 1564 1564 1563 1562 1561 1559 1556 1552 1551 1550 1549 1548 1547 1544 1546 1546 1546 1542 1538 1534 1530 1533 1528 1528 1533 1535 1537 1537 1532 1532 1523 1525 1527 1527 1523 1524 1520 1515 1514 1506
1556 1557 1558 1559 1559 1560 1561 1561 1561 1560 1560 1559 1558 1556 1553 1551 1550 1549 1546 1544 1545 1547 1547 1544 1540 1539 1534 1537 1536 1531 1528 1535 1535 1535 1535 1534 1534 1524 1526 1522 1521 1522 1519 1520 1521 1517 1508
1551 1551 1552 1552 1553 1554 1555 1557 1557 1557 1557 1557 1557 1556 1551 1551 1553 1549 1543 1544 1546 1544 1546 1546 1544 1541 1539 1537 1535 1534 1532 1533 1536 1537 1533 1536 1532 1529 1520 1524 1526 1524 1521 1521 1520 1513 1512
1546 1547 1547 1547 1548 1549 1550 1551 1553 1554 1555 1556 1554 1553 1549 1549 1548 1544 1547 1547 1546 1545 1545 1543 1539 1540 1540 1539 1539 1533 1532 1536 1537 1537 1536 1535 1531 1529 1519 1526 1526 1523 1520 1522 1522 1523 1515
1542 1542 1543 1543 1543 1544 1545 1545 1548 1550 1552 1554 1554 1551 1548 1546 1545 1546 1543 1542 1543 1541 1542 1542 1541 1541 1539 1538 1538 1534 1535 1537 1537 1538 1539 1540 1531 1527 1519 1512 1520 1520 1518 1523 1522 1522 1509
1537 1537 1537 1538 1539 1539 1540 1540 1542 1544 1548 1551 1551 1547 1545 1540 1541 1544 1546 1543 1543 1541 1541 1540 1537 1536 1535 1535 1536 1534 1533 1535 1538 1539 1539 1537 1529 1525 1522 1518 1518 1518 1517 1517 1517 1519 1516
1531 1531 1533 1534 1534 1535 1535 1535 1537 1539 1542 1545 1546 1546 1545 1546 1546 1543 1543 1541 1539 1538 1538 1535 1534 1532 1533 1534 1532 1532 1534 1533 1532 1536 1537 1538 1530 1528 1528 1518 1517 1516 1513 1510 1510 1510 1509
1525 1525 1527 1529 1530 1531 1531 1531 1531 1533 1536 1538 1541 1541 1543 1545 1544 1544 1538 1535 1534 1535 1535 1532 1532 1530 1531 1530 1532 1533 1533 1533 1533 1534 1534 1536 1532 1528 1519 1519 1518 1510 1503 1501 1508 1517 1515
1520 1520 1521 1523 1525 1526 1527 1527 1527 1528 1529 1532 1535 1538 1541 1539 1542 1539 1535 1535 1533 1532 1535 1535 1533 1531 1530 1529 1529 1530 1529 1528 1529 1528 1530 1528 1532 1528 1521 1517 1514 1515 1517 1515 1513 1521 1526
1514 1515 1515 1517 1519 1521 1522 1523 1523 1524 1526 1528 1528 1531 1533 1534 1532 1533 1533 1532 1531 1533 1535 1535 1531 1531 1531 1532 1530 1527 1523 1526 1526 1530 1530 1531 1528 1525 1522 1510 1497 1520 1522 1521 1519 1518 1528
1506 1508 1509 1510 1513 1515 1516 1518 1519 1520 1522 1523 1524 1526 1528 1529 1525 1524 1526 1529 1529 1529 1532 1530 1529 1529 1529 1530 1531 1533 1521 1516 1516 1526 1529 1529 1527 1523 1518 1518 1499 1514 1527 1528 1527 1515 1531
1499 1500 1502 1504 1506 1509 1510 1512 1513 1515 1516 1518 1518 1521 1523 1523 1520 1522 1522 1522 1524 1526 1529 1527 1525 1526 1529 1526 1529 1526 1520 1520 1520 1511 1523 1527 1527 1523 1519 1512 1505 1525 1528 1528 1523 1528 1535
1491 1492 1494 1495 1498 1502 1504 1506 1507 1509 1510 1512 1513 1515 1517 1516 1514 1516 1515 1518 1518 1519 1522 1523 1527 1525 1524 1528 1524 1516 1517 1514 1514 1507 1511 1512 1514 1516 1513 1511 1504 1528 1528 1525 1532 1534 1535
1482 1484 1486 1487 1489 1492 1495 1499 1501 1502 1504 1506 1505 1507 1511 1513 1510 1511 1511 1512 1514 1513 1516 1518 1517 1515 1515 1517 1518 1516 1516 1512 1507 1505 1510 1510 1509 1506 1514 1514 1529 1530 1530 1532 1533 1534 1535